Home   Weather   Appleton   Past weeks

Flag for USA Past Weather in Appleton, Wisconsin, USA — Yesterday and Last 2 Weeks

52 °F

Passing clouds.

Feels Like: 47 °F
Forecast: 38 / 61 °F
Wind: 14 mph from North

Location: Appleton / Outagamie

Current Time: Oct 23, 2016 at 6:49:36 PM

Latest Report: Oct 23, 2016 at 6:00 PM

Visibility: 5 mi

Pressure: 29.97 "Hg

Humidity: 77%

Dew Point: 45 °F

Location of AppletonLocation

Past Weather in Appleton — Graph


Appleton Temperature Yesterday

Maximum temperature yesterday: 57 °F (at 2:45 PM)
Minimum temperature yesterday: 34 °F (at 12:15 AM)
Average temperature yesterday: 43 °F

High & Low Weather Summary for the Past Weeks

High75 °F (Oct 17, 12:45 PM)100% (Oct 10, 1:55 AM)30.41 "Hg (Oct 10, 1:55 AM)
Low32 °F (Oct 13, 3:35 AM)35% (Oct 19, 2:45 PM)29.31 "Hg (Oct 17, 9:45 PM)
Average51 °F76%30.01 "Hg
* Reported Oct 8 6:45 PM — Oct 23 6:00 PM, Appleton, Weather by CustomWeather, © 2016

Note: Actual official high and low records may vary slightly from our data, if they occured in-between our weather recording intervals... More about our weather records


Appleton Weather History for the Previous 24 Hours

Scroll right to see more
Time TempWeatherWind HumidityBarometerVisibility
6:00 PM
Sun, Oct 23
52 °FPassing clouds.14 mph77%29.97 "Hg5 mi
4:45 PM55 °FPartly sunny.17 mph67%29.89 "Hg10 mi
3:45 PM61 °FPartly sunny.17 mph52%29.84 "Hg10 mi
2:45 PM64 °FScattered clouds.6 mph46%29.77 "Hg10 mi
1:45 PM64 °FScattered clouds.5 mph46%29.77 "Hg10 mi
12:45 PM61 °FPartly sunny.10 mph52%29.78 "Hg10 mi
11:45 AM57 °FPartly sunny.9 mph67%29.81 "Hg10 mi
10:45 AM57 °FScattered clouds.10 mph59%29.85 "Hg10 mi
9:45 AM52 °FScattered clouds.3 mph82%29.87 "Hg10 mi
8:45 AM45 °FPassing clouds.3 mph100%29.87 "Hg10 mi
7:45 AM39 °FScattered clouds.No wind100%29.89 "Hg10 mi
6:45 AM39 °FPassing clouds.No wind100%29.92 "Hg10 mi
5:45 AM39 °FPassing clouds.No wind100%29.93 "Hg10 mi
5:15 AM41 °FClear.No wind93%29.94 "Hg10 mi
4:55 AM41 °FClear.No wind100%29.93 "Hg10 mi
4:35 AM39 °FClear.No wind100%29.93 "Hg10 mi
4:15 AM39 °FClear.No wind93%29.93 "Hg10 mi
3:55 AM39 °FClear.No wind93%29.94 "Hg10 mi
3:35 AM39 °FClear.6 mph93%29.94 "Hg10 mi
3:15 AM39 °FClear.7 mph93%29.94 "Hg10 mi
2:55 AM41 °FClear.7 mph93%29.95 "Hg10 mi
2:35 AM43 °FClear.8 mph93%29.95 "Hg10 mi
2:15 AM41 °FClear.7 mph100%29.95 "Hg10 mi
1:55 AM43 °FClear.8 mph93%29.95 "Hg10 mi
1:35 AM43 °FClear.8 mph93%29.95 "Hg10 mi
1:15 AM43 °FClear.8 mph81%29.95 "Hg10 mi
12:55 AM43 °FClear.8 mph76%29.94 "Hg10 mi
12:35 AM43 °FClear.7 mph76%29.94 "Hg10 mi
12:15 AM45 °FClear.6 mph76%29.94 "Hg10 mi
11:55 PM
Sat, Oct 22
43 °FClear.6 mph76%29.94 "Hg10 mi
11:35 PM45 °FClear.7 mph71%29.94 "Hg10 mi
11:15 PM43 °FClear.6 mph76%29.94 "Hg10 mi
10:45 PM46 °FPassing clouds.6 mph71%29.95 "Hg10 mi
9:45 PM46 °FPassing clouds.6 mph66%29.95 "Hg10 mi
8:45 PM48 °FPassing clouds.6 mph66%29.94 "Hg10 mi
7:45 PM52 °FPassing clouds.3 mph58%29.92 "Hg10 mi
6:45 PM52 °FPassing clouds.5 mph58%29.93 "Hg10 mi
Weather by CustomWeather, © 2016

See weather overviewHow to use our weather pages